Theta_e
312 310 311 310 312 312 313 313 312 313 314 312 312 311 309 308 308 307 310 309 308 309 309 307 309 310 308 307 309 311 310 308 307 305 308 310 310 309 310 312 313 311 311
313 311 311 312 312 313 313 312 313 312 312 311 311 310 309 310 311 311 308 308 309 308 307 307 307 307 308 308 306 308 308 310 309 303 306 308 308 309 309 308 309 311 309
312 312 313 312 311 312 313 313 313 313 312 311 312 308 309 310 309 308 310 308 307 306 308 306 307 307 305 306 306 308 308 309 310 305 304 307 308 308 305 306 306 307 308
312 312 312 312 311 313 313 313 313 312 311 311 311 309 311 310 309 307 306 309 308 306 303 308 308 308 307 307 306 305 306 307 306 304 305 305 305 307 306 302 301 305 304
311 311 311 312 313 313 313 312 313 312 311 310 310 310 309 309 307 309 307 306 305 306 308 307 309 309 308 308 306 305 304 303 303 302 302 303 303 305 303 304 302 302 304
312 310 311 313 312 312 313 311 312 312 312 311 309 309 309 306 302 303 305 306 306 305 304 305 309 308 307 307 307 307 306 304 303 302 301 300 302 304 304 304 302 300 298
312 312 311 312 311 311 312 311 311 312 312 311 311 310 308 308 301 300 303 307 306 305 306 306 306 307 308 308 306 306 305 307 306 306 302 302 303 306 306 304 305 306 303
312 312 312 313 312 312 311 312 312 312 312 311 311 311 310 307 301 299 300 308 307 307 309 307 307 307 307 303 308 307 307 304 307 308 309 308 309 309 310 309 310 306 309
312 312 313 313 312 311 310 311 311 311 311 312 311 310 310 308 300 299 303 310 308 307 308 307 304 306 300 300 306 305 305 305 304 303 302 302 301 302 306 310 309 306 305
312 312 313 314 313 311 310 310 308 311 310 310 310 310 307 308 298 298 301 305 308 304 308 305 302 303 299 299 308 306 304 305 306 305 307 307 307 307 306 313 312 307 304
312 312 313 314 314 313 313 311 310 311 310 311 309 310 310 308 306 298 298 308 306 305 303 304 303 299 298 298 300 307 304 305 306 308 309 308 308 308 310 313 314 310 307
312 311 312 313 313 313 312 311 312 311 310 308 307 308 308 308 301 300 298 298 302 307 302 303 304 297 297 297 302 298 299 301 307 305 305 304 304 305 306 307 310 311 311
311 311 312 312 313 313 312 312 310 311 309 309 306 304 305 306 306 300 299 298 301 305 306 302 299 298 299 300 299 300 300 305 305 303 302 303 303 305 307 307 308 309 309
309 310 311 312 311 312 311 311 309 309 308 308 305 305 303 305 304 306 304 306 303 304 305 305 301 300 300 301 302 303 305 305 303 302 302 303 305 305 305 304 303 304 304
309 309 310 309 310 310 310 310 308 311 306 307 306 306 303 301 303 296 298 304 304 301 302 306 305 304 303 300 301 301 303 305 304 303 303 304 304 303 304 307 306 305 302
309 308 306 307 307 309 306 310 300 299 298 296 295 299 305 297 294 293 293 293 294 294 303 303 302 303 301 301 299 298 300 301 302 302 303 302 301 302 303 303 302 303 302
310 309 309 306 308 307 309 307 305 305 299 297 296 298 296 292 293 293 293 293 295 296 303 301 302 301 302 301 297 297 296 300 302 302 301 301 303 300 299 303 301 301 303
313 300 308 307 307 308 306 306 306 305 304 306 296 297 294 294 294 294 294 295 300 300 300 299 300 302 301 302 302 299 297 297 298 301 302 301 300 300 299 301 302 301 303
309 309 310 309 307 306 307 306 306 305 304 303 303 299 297 295 295 295 295 300 299 298 299 298 300 300 302 301 302 303 301 300 297 298 299 300 303 304 303 303 302 294 296
311 302 301 309 308 306 306 305 305 304 304 304 304 302 302 300 301 300 301 300 299 300 299 299 300 301 300 302 301 302 304 303 304 299 301 298 300 302 303 302 305 301 301
309 311 301 308 310 306 305 305 304 305 303 304 304 300 287 302 300 300 300 300 300 299 302 302 301 301 304 300 301 301 301 302 302 303 304 304 298 298 306 307 307 305 302
309 308 309 307 309 307 307 307 306 306 304 304 304 301 291 302 301 300 301 300 300 301 302 303 302 302 300 301 301 300 299 301 302 300 300 303 295 300 306 305 304 304 303
310 309 308 308 311 302 308 309 307 306 305 304 304 302 301 300 301 300 300 300 301 300 301 301 300 300 300 300 300 301 299 299 298 298 298 297 295 296 300 302 304 302 302
311 311 308 311 310 308 309 307 307 299 304 304 303 300 299 302 301 300 300 300 300 299 300 301 302 301 301 301 300 299 299 293 292 298 294 290 292 292 296 297 303 306 305
312 311 310 309 309 310 310 308 306 305 304 304 301 299 299 300 301 300 300 300 299 299 300 301 301 300 300 299 297 296 289 284 287 286 289 296 291 292 296 301 306 307 307
313 313 311 310 308 308 306 305 304 304 303 303 300 299 300 299 300 300 300 298 299 299 300 299 299 298 298 298 293 286 285 284 287 284 289 294 290 294 300 305 306 306 307
Wind_Speed
7 6 6 7 7 8 9 10 10 10 11 11 11 10 10 10 10 12 12 12 11 10 10 9 10 9 5 4 6 4 2 2 2 3 3 4 6 8 9 9 10 11 12
6 6 5 6 7 8 9 12 12 12 11 10 12 12 11 13 12 12 13 13 12 13 11 11 11 8 10 5 5 4 5 3 1 6 2 2 5 7 9 10 8 9 10
5 5 6 7 7 8 9 10 10 11 13 13 13 11 12 13 15 13 13 14 11 12 12 12 11 10 11 6 7 6 4 3 3 5 4 2 3 5 8 8 7 8 8
5 5 6 8 7 7 8 9 10 10 11 12 11 9 12 12 12 12 10 12 11 6 8 12 12 13 12 11 7 8 6 4 7 6 6 5 4 4 5 6 6 5 7
4 6 6 6 6 6 7 9 10 10 9 10 11 11 11 10 10 13 11 9 11 12 11 10 11 13 13 15 7 8 7 6 6 6 5 4 3 3 5 6 7 5 7
3 5 5 5 6 6 6 8 9 9 9 10 12 11 12 11 14 14 11 8 8 9 9 9 11 12 8 14 16 19 14 6 7 5 3 3 4 4 4 5 6 5 4
1 3 4 5 5 5 6 6 9 10 10 10 10 11 11 13 14 14 13 7 6 8 9 8 8 9 10 10 11 11 15 11 7 4 4 1 2 4 6 7 4 4 6
1 2 3 2 3 4 5 7 8 8 8 8 9 11 11 10 14 14 16 4 6 7 10 10 10 9 12 9 6 9 9 11 11 6 4 2 5 4 1 3 5 5 4
2 1 1 2 3 6 7 6 6 7 9 10 9 9 12 11 12 14 15 9 7 7 9 10 9 10 13 13 5 9 8 9 7 8 8 6 7 7 6 3 4 6 4
2 1 2 1 3 4 5 5 5 7 6 7 8 8 7 11 13 13 14 5 9 6 6 7 11 11 10 11 8 4 6 6 4 5 6 5 4 5 2 4 3 3 4
3 4 3 2 4 4 5 6 4 7 6 7 7 7 8 9 10 11 12 10 9 3 5 5 5 10 9 9 9 7 6 7 1 2 2 2 6 3 3 4 4 4 2
4 5 5 4 5 3 6 5 7 6 6 5 6 6 5 7 7 7 6 7 12 6 6 5 5 8 7 9 7 7 7 10 5 4 4 4 4 4 4 4 6 7 7
5 6 5 5 6 4 6 6 5 5 6 5 7 7 7 7 7 7 4 5 6 7 6 6 6 8 7 2 7 8 9 3 4 4 4 4 4 3 2 4 6 8 8
5 5 5 6 5 4 6 5 4 6 4 4 6 8 8 7 8 11 10 8 7 5 2 6 5 4 5 3 4 5 5 5 4 3 2 2 2 3 4 3 3 3 4
4 4 5 4 3 3 4 5 6 4 6 8 5 7 8 9 9 5 8 9 9 9 11 5 5 6 6 7 7 6 5 4 3 3 2 0 2 1 1 1 0 0 4
2 2 3 4 4 3 4 4 4 4 6 6 3 5 6 4 6 8 8 7 8 10 5 5 6 5 5 7 6 6 5 5 4 4 2 1 1 1 3 4 3 2 2
3 1 0 4 4 5 3 3 5 3 8 7 6 4 5 7 6 8 8 9 5 10 4 5 6 7 7 5 4 4 5 5 4 3 0 2 2 1 1 1 1 3 1
1 1 3 3 5 6 3 5 6 6 7 5 6 3 3 1 4 7 10 9 5 5 6 7 8 5 6 7 6 4 3 5 5 3 2 1 2 2 2 3 2 3 5
3 3 3 3 4 6 4 5 6 7 4 2 1 5 5 5 3 6 8 6 5 5 6 6 6 6 6 5 6 5 2 4 3 3 4 4 4 3 4 5 2 3 3
5 2 6 7 3 7 3 6 7 6 9 7 7 6 5 6 6 6 5 5 6 4 5 6 6 5 6 7 6 8 5 4 1 0 3 3 5 4 4 5 4 4 4
5 5 7 6 3 5 4 4 7 7 4 8 5 7 5 6 5 5 5 5 5 8 8 6 6 5 3 4 7 7 8 6 6 6 4 0 4 5 7 6 3 5 3
4 4 4 4 2 4 4 4 5 8 6 7 5 7 4 4 4 5 5 5 5 7 7 6 5 5 5 7 4 8 7 7 6 6 8 6 4 7 6 3 3 4 4
5 4 3 2 2 2 5 4 6 7 9 8 6 6 6 6 6 5 5 5 7 8 8 6 4 5 5 5 7 4 6 6 7 7 7 7 5 6 7 7 4 6 6
5 4 4 3 4 6 5 5 5 3 4 6 7 5 6 6 5 5 5 6 6 8 9 7 6 7 8 7 7 6 6 8 8 8 6 7 6 7 5 7 9 7 9
2 3 5 5 5 4 2 3 5 6 6 6 6 6 5 5 4 5 5 6 7 8 8 7 6 8 8 8 6 9 10 7 9 8 8 8 7 10 9 9 8 8 12
1 2 3 4 4 4 5 5 6 6 6 6 5 5 4 5 5 6 6 7 8 8 9 6 7 9 9 6 11 9 7 6 9 9 10 6 7 6 8 10 9 2 9
Wind_Direction
34 14 18 17 27 17 20 15 13 0 7 3 356 4 0 11 5 354 346 359 4 6 5 345 1 359 322 331 323 283 272 240 280 64 56 69 66 75 62 63 70 68 67
20 22 17 23 25 24 19 19 11 9 17 11 10 7 4 7 358 2 349 354 357 12 358 1 357 358 355 3 321 302 307 276 289 128 109 95 86 84 86 81 69 71 76
21 27 32 28 23 19 18 27 24 12 8 8 12 10 5 6 5 4 356 350 17 13 356 357 352 18 360 8 350 346 316 271 169 139 118 101 97 90 83 69 65 70 70
40 32 33 31 17 15 21 18 19 11 10 5 17 9 15 10 10 358 356 342 6 36 9 353 1 13 14 8 6 11 358 71 116 116 117 107 101 117 89 97 81 70 80
34 33 33 29 36 30 22 15 12 15 16 6 16 17 22 12 14 349 356 353 358 356 12 357 7 8 36 28 23 22 21 58 72 90 91 105 115 106 107 110 102 100 72
30 24 29 32 49 41 23 21 26 14 11 9 3 11 19 24 354 349 341 352 4 0 2 5 348 19 37 61 41 42 44 45 74 74 50 62 76 105 119 120 122 114 82
359 48 58 49 53 38 20 20 20 11 1 0 4 2 15 26 358 345 340 357 3 2 352 5 354 20 10 13 73 50 47 44 82 92 95 93 150 161 155 163 203 163 121
236 67 74 54 41 13 1 17 4 353 357 1 360 359 359 46 3 348 339 19 25 1 13 12 2 19 18 355 18 53 68 49 35 41 60 94 171 161 73 338 95 108 119
232 4 47 20 12 15 2 352 343 332 345 347 4 5 357 35 23 353 342 21 4 16 21 32 10 22 4 348 7 72 35 61 84 79 65 56 53 35 9 227 170 163 146
244 305 295 331 324 17 3 349 327 314 346 337 349 7 343 25 40 3 357 16 18 13 26 16 38 13 351 352 360 46 54 49 69 64 36 58 54 100 27 307 346 222 170
256 272 266 293 313 0 328 299 291 304 328 352 354 345 8 29 33 13 4 2 1 37 3 8 15 357 357 351 332 35 35 332 10 303 34 84 128 64 39 352 9 348 322
256 268 272 288 308 322 313 314 300 304 307 329 348 337 10 5 67 35 351 357 348 26 22 358 19 351 348 358 360 4 321 288 350 12 45 30 28 36 44 19 30 28 35
253 275 281 295 302 330 311 313 311 287 309 342 346 356 19 6 356 35 357 349 12 11 41 8 348 6 354 348 14 333 297 3 23 48 47 16 52 54 122 96 82 71 63
265 284 286 284 328 320 302 351 321 318 342 346 350 3 359 9 10 7 351 349 5 350 123 75 27 14 358 14 350 353 354 21 10 33 32 43 22 35 70 81 89 92 88
263 292 283 285 312 335 326 330 337 347 352 342 3 351 359 356 19 337 326 349 352 1 315 10 47 28 41 28 11 6 358 351 34 30 5 16 107 51 71 132 338 274 88
258 274 42 349 330 353 329 355 212 261 294 255 286 316 352 70 346 321 324 330 338 327 334 353 6 36 43 23 12 360 352 359 0 351 30 351 125 118 45 42 29 341 102
282 218 273 256 314 314 359 326 317 230 205 206 221 217 228 309 326 324 326 328 292 320 358 5 10 355 10 51 36 4 348 333 324 340 24 356 21 82 307 179 169 265 283
268 83 261 309 340 317 342 325 323 344 356 21 204 210 128 314 350 329 328 324 356 11 9 355 350 1 1 347 4 16 345 342 344 344 323 238 227 245 265 292 195 235 256
210 253 300 298 334 318 335 356 359 360 1 19 17 155 195 205 240 272 288 9 1 1 353 346 349 347 335 354 343 337 17 320 333 333 329 328 316 272 240 232 225 306 287
211 250 279 286 334 305 352 4 348 0 345 352 356 56 360 346 7 352 1 355 348 342 334 321 343 4 350 333 334 324 336 330 37 210 314 313 311 314 281 255 205 200 241
242 203 244 251 256 296 23 358 329 332 24 331 359 75 57 330 345 337 337 340 346 333 336 328 332 342 335 350 341 328 325 338 349 343 308 87 325 293 272 248 256 161 230
237 255 266 320 324 305 336 334 314 321 344 337 348 115 141 334 345 339 346 354 347 326 326 328 336 343 348 340 340 331 318 330 341 348 338 349 335 285 286 260 260 226 200
244 256 277 294 294 280 251 288 298 338 349 334 347 24 1 357 352 342 12 353 343 334 321 334 335 329 332 329 315 332 322 336 344 324 330 321 319 310 319 306 259 206 203
256 270 299 333 298 302 286 307 324 311 325 331 33 27 8 3 349 8 355 336 337 330 311 326 336 347 341 344 341 343 21 359 326 314 338 297 307 294 285 282 269 249 218
252 281 289 315 344 343 310 306 339 345 341 356 52 15 1 356 345 354 333 341 339 307 326 334 339 345 345 346 1 350 12 331 315 319 290 304 291 283 278 277 282 270 247
299 355 360 20 33 9 4 352 351 352 349 30 29 9 359 327 359 330 355 336 312 330 338 344 345 342 334 355 26 341 306 325 320 314 304 284 262 272 283 281 288 291 291